Year,Month,Day,Hour,Minute,Value (Times are PST for temperature in C)
2017,07,23,00,00,15.50
2017,07,23,00,01,15.50
2017,07,23,00,02,15.50
2017,07,23,00,03,15.50
2017,07,23,00,04,15.50
2017,07,23,00,05,15.50
2017,07,23,00,06,15.50
2017,07,23,00,07,15.50
2017,07,23,00,08,15.50
2017,07,23,00,09,15.50
2017,07,23,00,10,15.50
2017,07,23,00,11,15.50
2017,07,23,00,12,15.50
2017,07,23,00,13,15.50
2017,07,23,00,14,15.50
2017,07,23,00,15,15.50
2017,07,23,00,16,15.60
2017,07,23,00,17,15.60
2017,07,23,00,18,15.60
2017,07,23,00,19,15.60
2017,07,23,00,20,15.60
2017,07,23,00,21,15.60
2017,07,23,00,22,15.60
2017,07,23,00,23,15.60
2017,07,23,00,24,15.60
2017,07,23,00,25,15.60
2017,07,23,00,26,15.60
2017,07,23,00,27,15.60
2017,07,23,00,28,15.60
2017,07,23,00,29,15.60
2017,07,23,00,30,15.60
2017,07,23,00,31,15.60
2017,07,23,00,32,15.60
2017,07,23,00,33,15.60
2017,07,23,00,34,15.60
2017,07,23,00,35,15.60
2017,07,23,00,36,15.60
2017,07,23,00,37,15.60
2017,07,23,00,38,15.60
2017,07,23,00,39,15.60
2017,07,23,00,40,15.70
2017,07,23,00,41,15.70
2017,07,23,00,42,15.70
2017,07,23,00,43,15.70
2017,07,23,00,44,15.80
2017,07,23,00,45,15.80
2017,07,23,00,46,15.80
2017,07,23,00,47,15.80
2017,07,23,00,48,15.90
2017,07,23,00,49,15.90
2017,07,23,00,50,15.90
2017,07,23,00,51,15.90
2017,07,23,00,52,15.90
2017,07,23,00,53,16.00
2017,07,23,00,54,16.00
2017,07,23,00,55,16.00
2017,07,23,00,56,16.00
2017,07,23,00,57,16.00
2017,07,23,00,58,16.10
2017,07,23,00,59,16.10
2017,07,23,01,00,16.10
2017,07,23,01,01,16.10
2017,07,23,01,02,16.10
2017,07,23,01,03,16.10
2017,07,23,01,04,16.10
2017,07,23,01,05,16.10
2017,07,23,01,06,16.10
2017,07,23,01,07,16.10
2017,07,23,01,08,16.10
2017,07,23,01,09,16.20
2017,07,23,01,10,16.20
2017,07,23,01,11,16.20
2017,07,23,01,12,16.10
2017,07,23,01,13,16.20
2017,07,23,01,14,16.20
2017,07,23,01,15,16.20
2017,07,23,01,16,16.20
2017,07,23,01,17,16.20
2017,07,23,01,18,16.10
2017,07,23,01,19,16.20
2017,07,23,01,20,16.20
2017,07,23,01,21,16.20
2017,07,23,01,22,16.20
2017,07,23,01,23,16.20
2017,07,23,01,24,16.20
2017,07,23,01,25,16.20
2017,07,23,01,26,16.20
2017,07,23,01,27,16.20
2017,07,23,01,28,16.20
2017,07,23,01,29,16.20
2017,07,23,01,30,16.10
2017,07,23,01,31,16.20
2017,07,23,01,32,16.20
2017,07,23,01,33,16.20
2017,07,23,01,34,16.20
2017,07,23,01,35,16.20
2017,07,23,01,36,16.20
2017,07,23,01,37,16.10
2017,07,23,01,38,16.10
2017,07,23,01,39,16.10
2017,07,23,01,40,16.10
2017,07,23,01,41,16.10
2017,07,23,01,42,16.10
2017,07,23,01,43,16.10
2017,07,23,01,44,16.10
2017,07,23,01,45,16.10
2017,07,23,01,46,16.10
2017,07,23,01,47,16.10
2017,07,23,01,48,16.10
2017,07,23,01,49,16.10
2017,07,23,01,50,16.00
2017,07,23,01,51,16.00
2017,07,23,01,52,16.00
2017,07,23,01,53,16.00
2017,07,23,01,54,16.00
2017,07,23,01,55,15.90
2017,07,23,01,56,15.90
2017,07,23,01,57,15.90
2017,07,23,01,58,15.90
2017,07,23,01,59,15.90
2017,07,23,02,00,15.90
2017,07,23,02,01,15.90
2017,07,23,02,02,15.90
2017,07,23,02,03,15.90
2017,07,23,02,04,15.90
2017,07,23,02,05,15.90
2017,07,23,02,06,15.80
2017,07,23,02,07,15.80
2017,07,23,02,08,15.80
2017,07,23,02,09,15.80
2017,07,23,02,10,15.80
2017,07,23,02,11,15.80
2017,07,23,02,12,15.80
2017,07,23,02,13,15.80
2017,07,23,02,14,15.70
2017,07,23,02,15,15.70
2017,07,23,02,16,15.70
2017,07,23,02,17,15.60
2017,07,23,02,18,15.60
2017,07,23,02,19,15.60
2017,07,23,02,20,15.50
2017,07,23,02,21,15.50
2017,07,23,02,22,15.50
2017,07,23,02,23,15.50
2017,07,23,02,24,15.50
2017,07,23,02,25,15.50
2017,07,23,02,26,15.50
2017,07,23,02,27,15.50
2017,07,23,02,28,15.50
2017,07,23,02,29,15.50
2017,07,23,02,30,15.50
2017,07,23,02,31,15.50
2017,07,23,02,32,15.50
2017,07,23,02,33,15.50
2017,07,23,02,34,15.50
2017,07,23,02,35,15.50
2017,07,23,02,36,15.50
2017,07,23,02,37,15.50
2017,07,23,02,38,15.50
2017,07,23,02,39,15.50
2017,07,23,02,40,15.40
2017,07,23,02,41,15.50
2017,07,23,02,42,15.40
2017,07,23,02,43,15.40
2017,07,23,02,44,15.40
2017,07,23,02,45,15.40
2017,07,23,02,46,15.40
2017,07,23,02,47,15.40
2017,07,23,02,48,15.40
2017,07,23,02,49,15.40
2017,07,23,02,50,15.40
2017,07,23,02,51,15.40
2017,07,23,02,52,15.40
2017,07,23,02,53,15.40
2017,07,23,02,54,15.40
2017,07,23,02,55,15.30
2017,07,23,02,56,15.30
2017,07,23,02,57,15.30
2017,07,23,02,58,15.30
2017,07,23,02,59,15.30
2017,07,23,03,00,15.30
2017,07,23,03,01,15.30
2017,07,23,03,02,15.30
2017,07,23,03,03,15.30
2017,07,23,03,04,15.30
2017,07,23,03,05,15.30
2017,07,23,03,06,15.30
2017,07,23,03,07,15.30
2017,07,23,03,08,15.30
2017,07,23,03,09,15.20
2017,07,23,03,10,15.20
2017,07,23,03,11,15.20
2017,07,23,03,12,15.20
2017,07,23,03,13,15.20
2017,07,23,03,14,15.30
2017,07,23,03,15,15.30
2017,07,23,03,16,15.30
2017,07,23,03,17,15.30
2017,07,23,03,18,15.30
2017,07,23,03,19,15.30
2017,07,23,03,20,15.30
2017,07,23,03,21,15.20
2017,07,23,03,22,15.20
2017,07,23,03,23,15.20
2017,07,23,03,24,15.20
2017,07,23,03,25,15.20
2017,07,23,03,26,15.20
2017,07,23,03,27,15.20
2017,07,23,03,28,15.20
2017,07,23,03,29,15.20
2017,07,23,03,30,15.20
2017,07,23,03,31,15.20
2017,07,23,03,32,15.10
2017,07,23,03,33,15.10
2017,07,23,03,34,15.10
2017,07,23,03,35,15.10
2017,07,23,03,36,15.10
2017,07,23,03,37,15.10
2017,07,23,03,38,15.10
2017,07,23,03,39,15.10
2017,07,23,03,40,15.10
2017,07,23,03,41,15.10
2017,07,23,03,42,15.00
2017,07,23,03,43,15.00
2017,07,23,03,44,15.00
2017,07,23,03,45,15.00
2017,07,23,03,46,15.00
2017,07,23,03,47,15.00
2017,07,23,03,48,15.00
2017,07,23,03,49,15.00
2017,07,23,03,50,15.00
2017,07,23,03,51,15.00
2017,07,23,03,52,15.00
2017,07,23,03,53,15.00
2017,07,23,03,54,15.00
2017,07,23,03,55,15.00
2017,07,23,03,56,15.00
2017,07,23,03,57,15.00
2017,07,23,03,58,15.00
2017,07,23,03,59,15.00
2017,07,23,04,00,15.00
2017,07,23,04,01,15.00
2017,07,23,04,02,14.90
2017,07,23,04,03,15.00
2017,07,23,04,04,14.90
2017,07,23,04,05,14.90
2017,07,23,04,06,14.90
2017,07,23,04,07,14.90
2017,07,23,04,08,14.90
2017,07,23,04,09,14.90
2017,07,23,04,10,14.90
2017,07,23,04,11,14.90
2017,07,23,04,12,14.90
2017,07,23,04,13,14.90
2017,07,23,04,14,14.90
2017,07,23,04,15,14.90
2017,07,23,04,16,14.80
2017,07,23,04,17,14.90
2017,07,23,04,18,14.80
2017,07,23,04,19,14.80
2017,07,23,04,20,14.80
2017,07,23,04,21,14.80
2017,07,23,04,22,14.80
2017,07,23,04,23,14.80
2017,07,23,04,24,14.80
2017,07,23,04,25,14.80
2017,07,23,04,26,14.80
2017,07,23,04,27,14.80
2017,07,23,04,28,14.80
2017,07,23,04,29,14.80
2017,07,23,04,30,14.80
2017,07,23,04,31,14.80
2017,07,23,04,32,14.80
2017,07,23,04,33,14.80
2017,07,23,04,34,14.80
2017,07,23,04,35,14.80
2017,07,23,04,36,14.80
2017,07,23,04,37,14.80
2017,07,23,04,38,14.80
2017,07,23,04,39,14.80
2017,07,23,04,40,14.80
2017,07,23,04,41,14.80
2017,07,23,04,42,14.80
2017,07,23,04,43,14.80
2017,07,23,04,44,14.80
2017,07,23,04,45,14.80
2017,07,23,04,46,14.80
2017,07,23,04,47,14.80
2017,07,23,04,48,14.80
2017,07,23,04,49,14.80
2017,07,23,04,50,14.70
2017,07,23,04,51,14.70
2017,07,23,04,52,14.70
2017,07,23,04,53,14.70
2017,07,23,04,54,14.70
2017,07,23,04,55,14.70
2017,07,23,04,56,14.70
2017,07,23,04,57,14.70
2017,07,23,04,58,14.70
2017,07,23,04,59,14.70
2017,07,23,05,00,14.70
2017,07,23,05,01,14.70
2017,07,23,05,02,14.70
2017,07,23,05,03,14.70
2017,07,23,05,04,14.70
2017,07,23,05,05,14.70
2017,07,23,05,06,14.70
2017,07,23,05,07,14.70
2017,07,23,05,08,14.70
2017,07,23,05,09,14.70
2017,07,23,05,10,14.70
2017,07,23,05,11,14.70
2017,07,23,05,12,14.70
2017,07,23,05,13,14.70
2017,07,23,05,14,14.70
2017,07,23,05,15,14.70
2017,07,23,05,16,14.70
2017,07,23,05,17,14.70
2017,07,23,05,18,14.70
2017,07,23,05,19,14.70
2017,07,23,05,20,14.70
2017,07,23,05,21,14.70
2017,07,23,05,22,14.70
2017,07,23,05,23,14.70
2017,07,23,05,24,14.70
2017,07,23,05,25,14.70
2017,07,23,05,26,14.70
2017,07,23,05,27,14.70
2017,07,23,05,28,14.70
2017,07,23,05,29,14.70
2017,07,23,05,30,14.70
2017,07,23,05,31,14.70
2017,07,23,05,32,14.70
2017,07,23,05,33,14.70
2017,07,23,05,34,14.70
2017,07,23,05,35,14.70
2017,07,23,05,36,14.60
2017,07,23,05,37,14.60
2017,07,23,05,38,14.60
2017,07,23,05,39,14.60
2017,07,23,05,40,14.60
2017,07,23,05,41,14.60
2017,07,23,05,42,14.60
2017,07,23,05,43,14.60
2017,07,23,05,44,14.60
2017,07,23,05,45,14.60
2017,07,23,05,46,14.60
2017,07,23,05,47,14.60
2017,07,23,05,48,14.60
2017,07,23,05,49,14.60
2017,07,23,05,50,14.60
2017,07,23,05,51,14.60
2017,07,23,05,52,14.60
2017,07,23,05,53,14.60
2017,07,23,05,54,14.60
2017,07,23,05,55,14.60
2017,07,23,05,56,14.60
2017,07,23,05,57,14.60
2017,07,23,05,58,14.60
2017,07,23,05,59,14.60
2017,07,23,06,00,14.60
2017,07,23,06,01,14.60
2017,07,23,06,02,14.60
2017,07,23,06,03,14.60
2017,07,23,06,04,14.60
2017,07,23,06,05,14.60
2017,07,23,06,06,14.60
2017,07,23,06,07,14.60
2017,07,23,06,08,14.60
2017,07,23,06,09,14.60
2017,07,23,06,10,14.60
2017,07,23,06,11,14.60
2017,07,23,06,12,14.70
2017,07,23,06,13,14.70
2017,07,23,06,14,14.70
2017,07,23,06,15,14.70
2017,07,23,06,16,14.70
2017,07,23,06,17,14.70
2017,07,23,06,18,14.70
2017,07,23,06,19,14.70
2017,07,23,06,20,14.70
2017,07,23,06,21,14.70
2017,07,23,06,22,14.70
2017,07,23,06,23,14.70
2017,07,23,06,24,14.70
2017,07,23,06,25,14.70
2017,07,23,06,26,14.70
2017,07,23,06,27,14.70
2017,07,23,06,28,14.70
2017,07,23,06,29,14.70
2017,07,23,06,30,14.70
2017,07,23,06,31,14.70
2017,07,23,06,32,14.70
2017,07,23,06,33,14.70
2017,07,23,06,34,14.70
2017,07,23,06,35,14.70
2017,07,23,06,36,14.70
2017,07,23,06,37,14.70
2017,07,23,06,38,14.70
2017,07,23,06,39,14.70
2017,07,23,06,40,14.70
2017,07,23,06,41,14.70
2017,07,23,06,42,14.70
2017,07,23,06,43,14.70
2017,07,23,06,44,14.70
2017,07,23,06,45,14.70
2017,07,23,06,46,14.70
2017,07,23,06,47,14.70
2017,07,23,06,48,14.70
2017,07,23,06,49,14.70
2017,07,23,06,50,14.70
2017,07,23,06,51,14.70
2017,07,23,06,52,14.70
2017,07,23,06,53,14.70
2017,07,23,06,54,14.70
2017,07,23,06,55,14.70
2017,07,23,06,56,14.80
2017,07,23,06,57,14.80
2017,07,23,06,58,14.80
2017,07,23,06,59,14.80
2017,07,23,07,00,14.80
2017,07,23,07,01,14.80
2017,07,23,07,02,14.80
2017,07,23,07,03,14.80
2017,07,23,07,04,14.80
2017,07,23,07,05,14.80
2017,07,23,07,06,14.80
2017,07,23,07,07,14.80
2017,07,23,07,08,14.80
2017,07,23,07,09,14.80
2017,07,23,07,10,14.80
2017,07,23,07,11,14.80
2017,07,23,07,12,14.80
2017,07,23,07,13,14.80
2017,07,23,07,14,14.90
2017,07,23,07,15,14.90
2017,07,23,07,16,14.90
2017,07,23,07,17,14.90
2017,07,23,07,18,14.90
2017,07,23,07,19,14.90
2017,07,23,07,20,14.90
2017,07,23,07,21,14.90
2017,07,23,07,22,14.90
2017,07,23,07,23,14.90
2017,07,23,07,24,15.00
2017,07,23,07,25,15.00
2017,07,23,07,26,15.00
2017,07,23,07,27,15.00
2017,07,23,07,28,15.00
2017,07,23,07,29,15.00
2017,07,23,07,30,15.10
2017,07,23,07,31,15.10
2017,07,23,07,32,15.10
2017,07,23,07,33,15.10
2017,07,23,07,34,15.10
2017,07,23,07,35,15.10
2017,07,23,07,36,15.10
2017,07,23,07,37,15.10
2017,07,23,07,38,15.20
2017,07,23,07,39,15.20
2017,07,23,07,40,15.20
2017,07,23,07,41,15.20
2017,07,23,07,42,15.20
2017,07,23,07,43,15.20
2017,07,23,07,44,15.20
2017,07,23,07,45,15.30
2017,07,23,07,46,15.30
2017,07,23,07,47,15.30
2017,07,23,07,48,15.30
2017,07,23,07,49,15.30
2017,07,23,07,50,15.40
2017,07,23,07,51,15.40
2017,07,23,07,52,15.40
2017,07,23,07,53,15.50
2017,07,23,07,54,15.50
2017,07,23,07,55,15.50
2017,07,23,07,56,15.50
2017,07,23,07,57,15.60
2017,07,23,07,58,15.60
2017,07,23,07,59,15.60
2017,07,23,08,00,15.60
2017,07,23,08,01,15.70
2017,07,23,08,02,15.70
2017,07,23,08,03,15.70
2017,07,23,08,04,15.70
2017,07,23,08,05,15.80
2017,07,23,08,06,15.80
2017,07,23,08,07,15.80
2017,07,23,08,08,15.90
2017,07,23,08,09,15.90
2017,07,23,08,10,16.00
2017,07,23,08,11,16.10
2017,07,23,08,12,16.10
2017,07,23,08,13,16.20
2017,07,23,08,14,16.20
2017,07,23,08,15,16.30
2017,07,23,08,16,16.30
2017,07,23,08,17,16.30
2017,07,23,08,18,16.30
2017,07,23,08,19,16.30
2017,07,23,08,20,16.30
2017,07,23,08,21,16.30
2017,07,23,08,22,16.30
2017,07,23,08,23,16.30
2017,07,23,08,24,16.30
2017,07,23,08,25,16.30
2017,07,23,08,26,16.40
2017,07,23,08,27,16.40
2017,07,23,08,28,16.40
2017,07,23,08,29,16.40
2017,07,23,08,30,16.40
2017,07,23,08,31,16.40
2017,07,23,08,32,16.40
2017,07,23,08,33,16.40
2017,07,23,08,34,16.30
2017,07,23,08,35,16.30
2017,07,23,08,36,16.30
2017,07,23,08,37,16.30
2017,07,23,08,38,16.30
2017,07,23,08,39,16.30
2017,07,23,08,40,16.30
2017,07,23,08,41,16.30
2017,07,23,08,42,16.30
2017,07,23,08,43,16.40
2017,07,23,08,44,16.40
2017,07,23,08,45,16.40
2017,07,23,08,46,16.40
2017,07,23,08,47,16.40
2017,07,23,08,48,16.40
2017,07,23,08,49,16.40
2017,07,23,08,50,16.50
2017,07,23,08,51,16.50
2017,07,23,08,52,16.60
2017,07,23,08,53,16.60
2017,07,23,08,54,16.60
2017,07,23,08,55,16.60
2017,07,23,08,56,16.60
2017,07,23,08,57,16.60
2017,07,23,08,58,16.60
2017,07,23,08,59,16.60
2017,07,23,09,00,16.70
2017,07,23,09,01,16.70
2017,07,23,09,02,16.80
2017,07,23,09,03,16.80
2017,07,23,09,04,16.80
2017,07,23,09,05,16.80
2017,07,23,09,06,16.80
2017,07,23,09,07,16.80
2017,07,23,09,08,16.80
2017,07,23,09,09,16.80
2017,07,23,09,10,16.70
2017,07,23,09,11,16.70
2017,07,23,09,12,16.70
2017,07,23,09,13,16.70
2017,07,23,09,14,16.70
2017,07,23,09,15,16.70
2017,07,23,09,16,16.70
2017,07,23,09,17,16.80
2017,07,23,09,18,16.80
2017,07,23,09,19,16.80
2017,07,23,09,20,16.80
2017,07,23,09,21,16.80
2017,07,23,09,22,16.80
2017,07,23,09,23,16.80
2017,07,23,09,24,16.80
2017,07,23,09,25,16.80
2017,07,23,09,26,16.80
2017,07,23,09,27,16.80
2017,07,23,09,28,16.80
2017,07,23,09,29,16.90
2017,07,23,09,30,16.90
2017,07,23,09,31,17.00
2017,07,23,09,32,17.10
2017,07,23,09,33,17.10
2017,07,23,09,34,17.20
2017,07,23,09,35,17.20
2017,07,23,09,36,17.20
2017,07,23,09,37,17.30
2017,07,23,09,38,17.30
2017,07,23,09,39,17.40
2017,07,23,09,40,17.40
2017,07,23,09,41,17.50
2017,07,23,09,42,17.50
2017,07,23,09,43,17.50
2017,07,23,09,44,17.50
2017,07,23,09,45,17.60
2017,07,23,09,46,17.60
2017,07,23,09,47,17.60
2017,07,23,09,48,17.60
2017,07,23,09,49,17.60
2017,07,23,09,50,17.60
2017,07,23,09,51,17.70
2017,07,23,09,52,17.70
2017,07,23,09,53,17.70
2017,07,23,09,54,17.70
2017,07,23,09,55,17.70
2017,07,23,09,56,17.70
2017,07,23,09,57,17.70
2017,07,23,09,58,17.80
2017,07,23,09,59,17.80
2017,07,23,10,00,17.90
2017,07,23,10,01,17.90
2017,07,23,10,02,18.00
2017,07,23,10,03,17.90
2017,07,23,10,04,17.90
2017,07,23,10,05,17.90
2017,07,23,10,06,18.00
2017,07,23,10,07,18.00
2017,07,23,10,08,18.10
2017,07,23,10,09,18.10
2017,07,23,10,10,18.00
2017,07,23,10,11,18.00
2017,07,23,10,12,17.90
2017,07,23,10,13,17.90
2017,07,23,10,14,18.00
2017,07,23,10,15,18.10
2017,07,23,10,16,18.10
2017,07,23,10,17,18.10
2017,07,23,10,18,18.20
2017,07,23,10,19,18.20
2017,07,23,10,20,18.20
2017,07,23,10,21,18.10
2017,07,23,10,22,18.10
2017,07,23,10,23,18.00
2017,07,23,10,24,18.00
2017,07,23,10,25,18.00
2017,07,23,10,26,18.00
2017,07,23,10,27,18.10
2017,07,23,10,28,18.20
2017,07,23,10,29,18.20
2017,07,23,10,30,18.20
2017,07,23,10,31,18.10
2017,07,23,10,32,18.10
2017,07,23,10,33,18.10
2017,07,23,10,34,18.00
2017,07,23,10,35,18.00
2017,07,23,10,36,18.00
2017,07,23,10,37,17.90
2017,07,23,10,38,17.90
2017,07,23,10,39,17.90
2017,07,23,10,40,17.90
2017,07,23,10,41,17.90
2017,07,23,10,42,17.90
2017,07,23,10,43,18.00
2017,07,23,10,44,18.00
2017,07,23,10,45,18.10
2017,07,23,10,46,18.10
2017,07,23,10,47,18.10
2017,07,23,10,48,18.10
2017,07,23,10,49,18.20
2017,07,23,10,50,18.20
2017,07,23,10,51,18.10
2017,07,23,10,52,18.10
2017,07,23,10,53,18.10
2017,07,23,10,54,18.10
2017,07,23,10,55,18.20
2017,07,23,10,56,18.20
2017,07,23,10,57,18.20
2017,07,23,10,58,18.20
2017,07,23,10,59,18.20
2017,07,23,11,00,18.20
2017,07,23,11,01,18.10
2017,07,23,11,02,18.10
2017,07,23,11,03,18.00
2017,07,23,11,04,17.90
2017,07,23,11,05,17.90
2017,07,23,11,06,17.80
2017,07,23,11,07,17.80
2017,07,23,11,08,17.80
2017,07,23,11,09,17.80
2017,07,23,11,10,17.80
2017,07,23,11,11,17.80
2017,07,23,11,12,17.70
2017,07,23,11,13,17.70
2017,07,23,11,14,17.70
2017,07,23,11,15,17.70
2017,07,23,11,16,17.70
2017,07,23,11,17,17.80
2017,07,23,11,18,17.80
2017,07,23,11,19,17.80
2017,07,23,11,20,17.90
2017,07,23,11,21,18.00
2017,07,23,11,22,18.10
2017,07,23,11,23,18.10
2017,07,23,11,24,18.20
2017,07,23,11,25,18.20
2017,07,23,11,26,18.30
2017,07,23,11,27,18.30
2017,07,23,11,28,18.30
2017,07,23,11,29,18.30
2017,07,23,11,30,18.30
2017,07,23,11,31,18.20
2017,07,23,11,32,18.10
2017,07,23,11,33,18.10
2017,07,23,11,34,18.00
2017,07,23,11,35,17.90
2017,07,23,11,36,17.90
2017,07,23,11,37,17.90
2017,07,23,11,38,18.00
2017,07,23,11,39,18.00
2017,07,23,11,40,18.10
2017,07,23,11,41,18.10
2017,07,23,11,42,18.20
2017,07,23,11,43,18.20
2017,07,23,11,44,18.30
2017,07,23,11,45,18.30
2017,07,23,11,46,18.30
2017,07,23,11,47,18.30
2017,07,23,11,48,18.30
2017,07,23,11,49,18.30
2017,07,23,11,50,18.30
2017,07,23,11,51,18.30
2017,07,23,11,52,18.30
2017,07,23,11,53,18.30
2017,07,23,11,54,18.20
2017,07,23,11,55,18.20
2017,07,23,11,56,18.20
2017,07,23,11,57,18.20
2017,07,23,11,58,18.30
2017,07,23,11,59,18.40
2017,07,23,12,00,18.40
2017,07,23,12,01,18.50
2017,07,23,12,02,18.60
2017,07,23,12,03,18.50
2017,07,23,12,04,18.50
2017,07,23,12,05,18.40
2017,07,23,12,06,18.40
2017,07,23,12,07,18.40
2017,07,23,12,08,18.30
2017,07,23,12,09,18.30
2017,07,23,12,10,18.30
2017,07,23,12,11,18.40
2017,07,23,12,12,18.40
2017,07,23,12,13,18.40
2017,07,23,12,14,18.50
2017,07,23,12,15,18.50
2017,07,23,12,16,18.40
2017,07,23,12,17,18.40
2017,07,23,12,18,18.40
2017,07,23,12,19,18.50
2017,07,23,12,20,18.50
2017,07,23,12,21,18.50
2017,07,23,12,22,18.50
2017,07,23,12,23,18.40
2017,07,23,12,24,18.50
2017,07,23,12,25,18.60
2017,07,23,12,26,18.70
2017,07,23,12,27,18.70
2017,07,23,12,28,18.70
2017,07,23,12,29,18.60
2017,07,23,12,30,18.60
2017,07,23,12,31,18.60
2017,07,23,12,32,18.50
2017,07,23,12,33,18.50
2017,07,23,12,34,18.50
2017,07,23,12,35,18.50
2017,07,23,12,36,18.60
2017,07,23,12,37,18.60
2017,07,23,12,38,18.60
2017,07,23,12,39,18.60
2017,07,23,12,40,18.70
2017,07,23,12,41,18.80
2017,07,23,12,42,18.80
2017,07,23,12,43,18.80
2017,07,23,12,44,18.80
2017,07,23,12,45,18.80
2017,07,23,12,46,18.80
2017,07,23,12,47,18.80
2017,07,23,12,48,18.80
2017,07,23,12,49,18.80
2017,07,23,12,50,18.80
2017,07,23,12,51,18.80
2017,07,23,12,52,18.80
2017,07,23,12,53,18.80
2017,07,23,12,54,18.70
2017,07,23,12,55,18.70
2017,07,23,12,56,18.70
2017,07,23,12,57,18.70
2017,07,23,12,58,18.80
2017,07,23,12,59,18.80
2017,07,23,13,00,18.80
2017,07,23,13,01,18.80
2017,07,23,13,02,18.90
2017,07,23,13,03,19.00
2017,07,23,13,04,19.10
2017,07,23,13,05,19.10
2017,07,23,13,06,19.10
2017,07,23,13,07,19.10
2017,07,23,13,08,19.10
2017,07,23,13,09,19.10
2017,07,23,13,10,19.10
2017,07,23,13,11,19.20
2017,07,23,13,12,19.10
2017,07,23,13,13,19.10
2017,07,23,13,14,19.10
2017,07,23,13,15,19.10
2017,07,23,13,16,19.20
2017,07,23,13,17,19.30
2017,07,23,13,18,19.40
2017,07,23,13,19,19.40
2017,07,23,13,20,19.40
2017,07,23,13,21,19.40
2017,07,23,13,22,19.40
2017,07,23,13,23,19.30
2017,07,23,13,24,19.20
2017,07,23,13,25,19.20
2017,07,23,13,26,19.10
2017,07,23,13,27,19.10
2017,07,23,13,28,19.10
2017,07,23,13,29,19.10
2017,07,23,13,30,19.20
2017,07,23,13,31,19.30
2017,07,23,13,32,19.30
2017,07,23,13,33,19.40
2017,07,23,13,34,19.40
2017,07,23,13,35,19.40
2017,07,23,13,36,19.40
2017,07,23,13,37,19.40
2017,07,23,13,38,19.40
2017,07,23,13,39,19.40
2017,07,23,13,40,19.30
2017,07,23,13,41,19.40
2017,07,23,13,42,19.40
2017,07,23,13,43,19.40
2017,07,23,13,44,19.40
2017,07,23,13,45,19.40
2017,07,23,13,46,19.30
2017,07,23,13,47,19.30
2017,07,23,13,48,19.30
2017,07,23,13,49,19.40
2017,07,23,13,50,19.40
2017,07,23,13,51,19.50
2017,07,23,13,52,19.50
2017,07,23,13,53,19.50
2017,07,23,13,54,19.60
2017,07,23,13,55,19.50
2017,07,23,13,56,19.50
2017,07,23,13,57,19.40
2017,07,23,13,58,19.40
2017,07,23,13,59,19.40
2017,07,23,14,00,19.40
2017,07,23,14,01,19.40
2017,07,23,14,02,19.40
2017,07,23,14,03,19.40
2017,07,23,14,04,19.50
2017,07,23,14,05,19.50
2017,07,23,14,06,19.50
2017,07,23,14,07,19.40
2017,07,23,14,08,19.50
2017,07,23,14,09,19.50
2017,07,23,14,10,19.50
2017,07,23,14,11,19.50
2017,07,23,14,12,19.40
2017,07,23,14,13,19.50
2017,07,23,14,14,19.50
2017,07,23,14,15,19.60
2017,07,23,14,16,19.60
2017,07,23,14,17,19.60
2017,07,23,14,18,19.50
2017,07,23,14,19,19.50
2017,07,23,14,20,19.50
2017,07,23,14,21,19.50
2017,07,23,14,22,19.60
2017,07,23,14,23,19.60
2017,07,23,14,24,19.60
2017,07,23,14,25,19.60
2017,07,23,14,26,19.70
2017,07,23,14,27,19.70
2017,07,23,14,28,19.80
2017,07,23,14,29,19.80
2017,07,23,14,30,19.70
2017,07,23,14,31,19.70
2017,07,23,14,32,19.70
2017,07,23,14,33,19.70
2017,07,23,14,34,19.70
2017,07,23,14,35,19.70
2017,07,23,14,36,19.70
2017,07,23,14,37,19.70
2017,07,23,14,38,19.70
2017,07,23,14,39,19.70
2017,07,23,14,40,19.70
2017,07,23,14,41,19.70
2017,07,23,14,42,19.70
2017,07,23,14,43,19.80
2017,07,23,14,44,19.80
2017,07,23,14,45,19.90
2017,07,23,14,46,19.90
2017,07,23,14,47,19.90
2017,07,23,14,48,19.90
2017,07,23,14,49,19.80
2017,07,23,14,50,19.80
2017,07,23,14,51,19.90
2017,07,23,14,52,19.90
2017,07,23,14,53,20.00
2017,07,23,14,54,20.00
2017,07,23,14,55,20.10
2017,07,23,14,56,20.10
2017,07,23,14,57,20.20
2017,07,23,14,58,20.20
2017,07,23,14,59,20.20
2017,07,23,15,00,20.20
2017,07,23,15,01,20.20
2017,07,23,15,02,20.20
2017,07,23,15,03,20.20
2017,07,23,15,04,20.20
2017,07,23,15,05,20.20
2017,07,23,15,06,20.10
2017,07,23,15,07,20.10
2017,07,23,15,08,20.10
2017,07,23,15,09,20.10
2017,07,23,15,10,20.20
2017,07,23,15,11,20.20
2017,07,23,15,12,20.20
2017,07,23,15,13,20.10
2017,07,23,15,14,20.10
2017,07,23,15,15,20.10
2017,07,23,15,16,20.10
2017,07,23,15,17,20.10
2017,07,23,15,18,20.10
2017,07,23,15,19,20.10
2017,07,23,15,20,20.10
2017,07,23,15,21,20.10
2017,07,23,15,22,20.10
2017,07,23,15,23,20.10
2017,07,23,15,24,20.20
2017,07,23,15,25,20.20
2017,07,23,15,26,20.20
2017,07,23,15,27,20.20
2017,07,23,15,28,20.20
2017,07,23,15,29,20.20
2017,07,23,15,30,20.20
2017,07,23,15,31,20.20
2017,07,23,15,32,20.20
2017,07,23,15,33,20.20
2017,07,23,15,34,20.20
2017,07,23,15,35,20.20
2017,07,23,15,36,20.20
2017,07,23,15,37,20.20
2017,07,23,15,38,20.20
2017,07,23,15,39,20.20
2017,07,23,15,40,20.10
2017,07,23,15,41,20.10
2017,07,23,15,42,20.10
2017,07,23,15,43,20.10
2017,07,23,15,44,20.20
2017,07,23,15,45,20.20
2017,07,23,15,46,20.20
2017,07,23,15,47,20.30
2017,07,23,15,48,20.30
2017,07,23,15,49,20.30
2017,07,23,15,50,20.40
2017,07,23,15,51,20.40
2017,07,23,15,52,20.50
2017,07,23,15,53,20.50
2017,07,23,15,54,20.50
2017,07,23,15,55,20.50
2017,07,23,15,56,20.50
2017,07,23,15,57,20.60
2017,07,23,15,58,20.60
2017,07,23,15,59,20.60
2017,07,23,16,00,20.60
2017,07,23,16,01,20.60
2017,07,23,16,02,20.60
2017,07,23,16,03,20.70
2017,07,23,16,04,20.70
2017,07,23,16,05,20.70
2017,07,23,16,06,20.70
2017,07,23,16,07,20.70
2017,07,23,16,08,20.70
2017,07,23,16,09,20.70
2017,07,23,16,10,20.80
2017,07,23,16,11,20.70
2017,07,23,16,12,20.70
2017,07,23,16,13,20.70
2017,07,23,16,14,20.60
2017,07,23,16,15,20.60
2017,07,23,16,16,20.60
2017,07,23,16,17,20.60
2017,07,23,16,18,20.60
2017,07,23,16,19,20.60
2017,07,23,16,20,20.70
2017,07,23,16,21,20.70
2017,07,23,16,22,20.70
2017,07,23,16,23,20.70
2017,07,23,16,24,20.70
2017,07,23,16,25,20.70
2017,07,23,16,26,20.70
2017,07,23,16,27,20.80
2017,07,23,16,28,20.80
2017,07,23,16,29,20.80
2017,07,23,16,30,20.80
2017,07,23,16,31,20.80
2017,07,23,16,32,20.80
2017,07,23,16,33,20.70
2017,07,23,16,34,20.70
2017,07,23,16,35,20.60
2017,07,23,16,36,20.60
2017,07,23,16,37,20.60
2017,07,23,16,38,20.60
2017,07,23,16,39,20.60
2017,07,23,16,40,20.60
2017,07,23,16,41,20.60
2017,07,23,16,42,20.60
2017,07,23,16,43,20.60
2017,07,23,16,44,20.60
2017,07,23,16,45,20.70
2017,07,23,16,46,20.70
2017,07,23,16,47,20.70
2017,07,23,16,48,20.70
2017,07,23,16,49,20.70
2017,07,23,16,50,20.60
2017,07,23,16,51,20.60
2017,07,23,16,52,20.60
2017,07,23,16,53,20.60
2017,07,23,16,54,20.60
2017,07,23,16,55,20.60
2017,07,23,16,56,20.70
2017,07,23,16,57,20.70
2017,07,23,16,58,20.80
2017,07,23,16,59,20.80
2017,07,23,17,00,20.80
2017,07,23,17,01,20.80
2017,07,23,17,02,20.80
2017,07,23,17,03,20.80
2017,07,23,17,04,20.80
2017,07,23,17,05,20.80
2017,07,23,17,06,20.80
2017,07,23,17,07,20.80
2017,07,23,17,08,20.90
2017,07,23,17,09,20.90
2017,07,23,17,10,21.00
2017,07,23,17,11,21.00
2017,07,23,17,12,21.10
2017,07,23,17,13,21.10
2017,07,23,17,14,21.20
2017,07,23,17,15,21.20
2017,07,23,17,16,21.20
2017,07,23,17,17,21.30
2017,07,23,17,18,21.30
2017,07,23,17,19,21.30